Time,TemperatureF,DewpointF,PressureIn,WindDirection,WindDirectionDegrees,WindSpeedMPH,WindSpeedGustMPH,Humidity,HourlyPrecipIn,Conditions,Clouds,dailyrainin,SoftwareType,DateUTC
2013-04-03 00:00:00,64.2,10.6,29.74,NNW,345,0.0,0.0,12,0.00,,,0.00,meteohub,2013-04-03 06:00:00,
2013-04-03 00:05:00,64.2,10.6,29.74,WNW,293,0.0,0.0,12,0.00,,,0.00,meteohub,2013-04-03 06:05:00,
2013-04-03 00:11:00,64.2,12.4,29.73,WNW,294,0.0,0.0,13,0.00,,,0.00,meteohub,2013-04-03 06:11:00,
2013-04-03 00:17:00,63.9,12.0,29.74,WNW,294,0.0,0.0,13,0.00,,,0.00,meteohub,2013-04-03 06:17:00,
2013-04-03 00:22:00,63.3,11.7,29.73,WNW,294,0.0,0.0,13,0.00,,,0.00,meteohub,2013-04-03 06:22:00,
2013-04-03 00:27:00,62.8,11.1,29.73,WNW,294,0.0,0.0,13,0.00,,,0.00,meteohub,2013-04-03 06:27:00,
2013-04-03 00:32:00,62.2,12.4,29.73,WNW,294,0.0,0.0,14,0.00,,,0.00,meteohub,2013-04-03 06:32:00,
2013-04-03 00:37:00,61.5,11.8,29.73,WNW,294,0.0,0.0,14,0.00,,,0.00,meteohub,2013-04-03 06:37:00,
2013-04-03 00:43:00,61.2,11.5,29.73,WNW,294,0.0,0.0,14,0.00,,,0.00,meteohub,2013-04-03 06:43:00,
2013-04-03 00:48:00,60.8,11.3,29.73,WNW,295,0.0,0.0,14,0.00,,,0.00,meteohub,2013-04-03 06:48:00,
2013-04-03 00:53:00,61.0,12.9,29.73,WNW,295,0.0,0.0,15,0.00,,,0.00,meteohub,2013-04-03 06:53:00,
2013-04-03 00:59:00,61.0,12.9,29.73,WNW,295,0.0,0.0,15,0.00,,,0.00,meteohub,2013-04-03 06:59:00,
2013-04-03 01:04:00,60.6,12.7,29.73,WNW,295,0.0,0.0,15,0.00,,,0.00,meteohub,2013-04-03 07:04:00,
2013-04-03 01:09:00,60.1,12.2,29.73,WNW,295,0.0,0.0,15,0.00,,,0.00,meteohub,2013-04-03 07:09:00,
2013-04-03 01:14:00,59.5,13.3,29.74,WNW,295,0.0,0.0,16,0.00,,,0.00,meteohub,2013-04-03 07:14:00,
2013-04-03 01:20:00,58.8,14.0,29.74,WNW,295,0.0,0.0,17,0.00,,,0.00,meteohub,2013-04-03 07:20:00,
2013-04-03 01:25:00,58.3,14.9,29.75,WNW,295,0.0,0.0,18,0.00,,,0.00,meteohub,2013-04-03 07:25:00,
2013-04-03 01:30:00,57.7,14.5,29.75,WNW,295,0.0,0.0,18,0.00,,,0.00,meteohub,2013-04-03 07:30:00,
2013-04-03 01:36:00,57.0,15.1,29.75,WNW,295,0.0,0.0,19,0.00,,,0.00,meteohub,2013-04-03 07:36:00,
2013-04-03 01:41:00,56.5,14.7,29.76,WNW,295,0.0,0.0,19,0.00,,,0.00,meteohub,2013-04-03 07:41:00,
2013-04-03 01:46:00,56.1,14.4,29.76,WNW,295,0.0,0.0,19,0.00,,,0.00,meteohub,2013-04-03 07:46:00,
2013-04-03 01:51:00,56.3,15.8,29.76,WNW,302,0.0,0.0,20,0.00,,,0.00,meteohub,2013-04-03 07:51:00,
2013-04-03 01:57:00,56.7,17.2,29.76,NW,305,0.0,0.0,21,0.00,,,0.00,meteohub,2013-04-03 07:57:00,
2013-04-03 02:02:00,56.8,17.2,29.76,NW,304,0.0,0.0,21,0.00,,,0.00,meteohub,2013-04-03 08:02:00,
2013-04-03 02:07:00,56.8,18.3,29.76,NW,307,0.0,0.0,22,0.00,,,0.00,meteohub,2013-04-03 08:07:00,
2013-04-03 02:12:00,56.7,18.3,29.76,NW,307,0.0,0.0,22,0.00,,,0.00,meteohub,2013-04-03 08:12:00,
2013-04-03 02:18:00,56.1,18.9,29.77,NW,307,0.0,0.0,23,0.00,,,0.00,meteohub,2013-04-03 08:18:00,
2013-04-03 02:23:00,55.8,18.5,29.77,NW,308,0.0,0.0,23,0.00,,,0.00,meteohub,2013-04-03 08:23:00,
2013-04-03 02:28:00,55.6,19.4,29.78,NW,308,0.0,0.0,24,0.00,,,0.00,meteohub,2013-04-03 08:28:00,
2013-04-03 02:33:00,55.0,18.9,29.78,East,86,0.0,0.0,24,0.00,,,0.00,meteohub,2013-04-03 08:33:00,
2013-04-03 02:39:00,54.5,19.4,29.78,East,86,0.0,0.0,25,0.00,,,0.00,meteohub,2013-04-03 08:39:00,
2013-04-03 02:44:00,54.0,19.8,29.78,East,86,0.0,0.0,26,0.00,,,0.00,meteohub,2013-04-03 08:44:00,
2013-04-03 02:49:00,53.4,18.5,29.78,East,88,0.0,0.0,25,0.00,,,0.00,meteohub,2013-04-03 08:49:00,
2013-04-03 02:54:00,52.9,17.1,29.79,East,90,0.0,0.0,24,0.00,,,0.00,meteohub,2013-04-03 08:54:00,
2013-04-03 03:00:00,51.8,16.2,29.80,East,80,0.0,0.0,24,0.00,,,0.00,meteohub,2013-04-03 09:00:00,
2013-04-03 03:05:00,51.3,18.3,29.80,East,99,0.0,0.0,27,0.00,,,0.00,meteohub,2013-04-03 09:05:00,
2013-04-03 03:10:00,50.7,19.6,29.80,ENE,57,0.0,0.0,29,0.00,,,0.00,meteohub,2013-04-03 09:10:00,
2013-04-03 03:15:00,50.4,20.8,29.80,ENE,57,0.0,0.0,31,0.00,,,0.00,meteohub,2013-04-03 09:15:00,
2013-04-03 03:20:00,50.2,22.1,29.80,ENE,57,0.0,0.0,33,0.00,,,0.00,meteohub,2013-04-03 09:20:00,
2013-04-03 03:26:00,50.2,23.5,29.80,ENE,57,0.0,0.0,35,0.00,,,0.00,meteohub,2013-04-03 09:26:00,
2013-04-03 03:31:00,50.0,25.3,29.80,ENE,58,0.0,0.0,38,0.00,,,0.00,meteohub,2013-04-03 09:31:00,
2013-04-03 03:36:00,49.8,25.9,29.80,ENE,57,0.0,0.0,39,0.00,,,0.00,meteohub,2013-04-03 09:36:00,
2013-04-03 03:41:00,49.6,26.2,29.80,ENE,57,0.0,0.0,40,0.00,,,0.00,meteohub,2013-04-03 09:41:00,
2013-04-03 03:47:00,49.6,27.0,29.80,North,5,0.0,0.0,41,0.00,,,0.00,meteohub,2013-04-03 09:47:00,
2013-04-03 03:52:00,49.6,27.0,29.80,North,5,0.0,0.0,41,0.00,,,0.00,meteohub,2013-04-03 09:52:00,
2013-04-03 03:57:00,49.6,27.0,29.80,North,5,0.0,0.0,41,0.00,,,0.00,meteohub,2013-04-03 09:57:00,
2013-04-03 04:02:00,49.5,26.8,29.80,North,5,0.0,0.0,41,0.00,,,0.00,meteohub,2013-04-03 10:02:00,
2013-04-03 04:07:00,49.5,26.8,29.80,North,5,0.0,0.0,41,0.00,,,0.00,meteohub,2013-04-03 10:07:00,
2013-04-03 04:12:00,49.3,27.1,29.81,North,5,0.0,0.0,42,0.00,,,0.00,meteohub,2013-04-03 10:12:00,
2013-04-03 04:17:00,48.9,26.8,29.81,North,5,0.0,0.0,42,0.00,,,0.00,meteohub,2013-04-03 10:17:00,
2013-04-03 04:22:00,48.7,27.3,29.81,North,5,0.0,0.0,43,0.00,,,0.00,meteohub,2013-04-03 10:22:00,
2013-04-03 04:27:00,48.6,26.4,29.81,North,5,0.0,0.0,42,0.00,,,0.00,meteohub,2013-04-03 10:27:00,
2013-04-03 04:32:00,48.6,26.4,29.81,North,5,0.0,0.0,42,0.00,,,0.00,meteohub,2013-04-03 10:32:00,
2013-04-03 04:37:00,48.4,26.4,29.81,North,5,0.0,0.0,42,0.00,,,0.00,meteohub,2013-04-03 10:37:00,
2013-04-03 04:43:00,48.4,27.0,29.82,North,5,0.0,0.0,43,0.00,,,0.00,meteohub,2013-04-03 10:43:00,
2013-04-03 04:48:00,48.0,26.6,29.82,North,5,0.0,0.0,43,0.00,,,0.00,meteohub,2013-04-03 10:48:00,
2013-04-03 04:53:00,48.0,27.1,29.82,North,5,0.0,0.0,44,0.00,,,0.00,meteohub,2013-04-03 10:53:00,
2013-04-03 04:59:00,47.8,26.4,29.83,North,5,0.0,0.0,43,0.00,,,0.00,meteohub,2013-04-03 10:59:00,
2013-04-03 05:04:00,47.8,26.4,29.83,North,5,0.0,0.0,43,0.00,,,0.00,meteohub,2013-04-03 11:04:00,
2013-04-03 05:10:00,47.7,25.2,29.83,North,5,0.0,0.0,41,0.00,,,0.00,meteohub,2013-04-03 11:10:00,
2013-04-03 05:15:00,47.3,23.0,29.84,North,5,0.0,0.0,38,0.00,,,0.00,meteohub,2013-04-03 11:15:00,
2013-04-03 05:20:00,46.8,22.5,29.83,North,5,0.0,0.0,38,0.00,,,0.00,meteohub,2013-04-03 11:20:00,
2013-04-03 05:26:00,46.2,23.9,29.84,North,5,0.0,0.0,41,0.00,,,0.00,meteohub,2013-04-03 11:26:00,
2013-04-03 05:31:00,46.0,24.8,29.84,North,9,0.0,0.0,43,0.00,,,0.00,meteohub,2013-04-03 11:31:00,
2013-04-03 05:36:00,46.2,25.0,29.84,North,10,0.0,0.0,43,0.00,,,0.00,meteohub,2013-04-03 11:36:00,
2013-04-03 05:41:00,46.2,23.9,29.84,ENE,73,0.0,0.0,41,0.00,,,0.00,meteohub,2013-04-03 11:41:00,
2013-04-03 05:46:00,46.0,23.7,29.85,East,80,0.0,0.0,41,0.00,,,0.00,meteohub,2013-04-03 11:46:00,
2013-04-03 05:52:00,46.0,23.7,29.85,East,80,0.0,0.0,41,0.00,,,0.00,meteohub,2013-04-03 11:52:00,
2013-04-03 05:57:00,46.0,23.7,29.85,East,80,0.0,0.0,41,0.00,,,0.00,meteohub,2013-04-03 11:57:00,
2013-04-03 06:02:00,46.0,22.5,29.85,East,80,0.0,0.0,39,0.00,,,0.00,meteohub,2013-04-03 12:02:00,
2013-04-03 06:07:00,46.0,23.0,29.85,East,80,0.0,0.0,40,0.00,,,0.00,meteohub,2013-04-03 12:07:00,
2013-04-03 06:12:00,46.0,23.7,29.85,East,80,0.0,0.0,41,0.00,,,0.00,meteohub,2013-04-03 12:12:00,
2013-04-03 06:17:00,45.9,24.6,29.85,East,80,0.0,0.0,43,0.00,,,0.00,meteohub,2013-04-03 12:17:00,
2013-04-03 06:22:00,45.5,25.3,29.85,East,81,0.0,0.0,45,0.00,,,0.00,meteohub,2013-04-03 12:22:00,
2013-04-03 06:28:00,45.1,26.1,29.85,East,82,0.0,0.0,47,0.00,,,0.00,meteohub,2013-04-03 12:28:00,
2013-04-03 06:33:00,44.8,26.8,29.85,East,82,0.0,0.0,49,0.00,,,0.00,meteohub,2013-04-03 12:33:00,
2013-04-03 06:38:00,44.4,27.9,29.86,East,85,0.0,0.0,52,0.00,,,0.00,meteohub,2013-04-03 12:38:00,
2013-04-03 06:44:00,44.2,28.2,29.86,SSE,160,0.0,0.0,53,0.00,,,0.00,meteohub,2013-04-03 12:44:00,
2013-04-03 06:49:00,44.2,28.2,29.86,SSE,161,0.0,0.0,53,0.00,,,0.00,meteohub,2013-04-03 12:49:00,
2013-04-03 06:54:00,44.2,28.2,29.86,SSE,163,0.0,0.0,53,0.00,,,0.00,meteohub,2013-04-03 12:54:00,
2013-04-03 07:00:00,44.1,28.4,29.86,SSE,163,0.0,0.0,54,0.00,,,0.00,meteohub,2013-04-03 13:00:00,
2013-04-03 07:05:00,44.1,28.9,29.86,SSE,163,0.0,0.0,55,0.00,,,0.00,meteohub,2013-04-03 13:05:00,
2013-04-03 07:10:00,43.9,29.1,29.87,SSE,163,0.0,0.0,56,0.00,,,0.00,meteohub,2013-04-03 13:10:00,
2013-04-03 07:16:00,43.9,29.1,29.87,SSE,163,0.0,0.0,56,0.00,,,0.00,meteohub,2013-04-03 13:16:00,
2013-04-03 07:21:00,44.2,30.0,29.87,SSE,163,0.0,0.0,57,0.00,,,0.00,meteohub,2013-04-03 13:21:00,
2013-04-03 07:26:00,44.6,30.4,29.88,SSE,163,0.0,0.0,57,0.00,,,0.00,meteohub,2013-04-03 13:26:00,
2013-04-03 07:32:00,45.0,30.2,29.88,SSE,163,0.0,0.0,56,0.00,,,0.00,meteohub,2013-04-03 13:32:00,
2013-04-03 07:37:00,45.7,30.4,29.88,SSE,163,0.0,0.0,55,0.00,,,0.00,meteohub,2013-04-03 13:37:00,
2013-04-03 07:42:00,46.2,30.9,29.89,SSE,163,0.0,0.0,55,0.00,,,0.00,meteohub,2013-04-03 13:42:00,
2013-04-03 07:47:00,47.1,31.8,29.89,SSE,163,0.0,0.0,55,0.00,,,0.00,meteohub,2013-04-03 13:47:00,
2013-04-03 07:52:00,47.8,32.0,29.89,SSE,164,0.0,0.0,54,0.00,,,0.00,meteohub,2013-04-03 13:52:00,
2013-04-03 07:57:00,48.4,32.0,29.89,South,170,0.0,0.0,53,0.00,,,0.00,meteohub,2013-04-03 13:57:00,
2013-04-03 08:02:00,48.7,32.4,29.90,South,171,0.0,0.0,53,0.00,,,0.00,meteohub,2013-04-03 14:02:00,
2013-04-03 08:07:00,49.5,32.0,29.90,South,171,0.0,0.0,51,0.00,,,0.00,meteohub,2013-04-03 14:07:00,
2013-04-03 08:13:00,49.8,32.0,29.91,South,173,0.0,0.0,50,0.00,,,0.00,meteohub,2013-04-03 14:13:00,
2013-04-03 08:18:00,49.6,32.2,29.91,South,173,0.0,0.0,51,0.00,,,0.00,meteohub,2013-04-03 14:18:00,
2013-04-03 08:23:00,49.6,32.2,29.91,South,186,0.0,0.0,51,0.00,,,0.00,meteohub,2013-04-03 14:23:00,
2013-04-03 08:28:00,50.0,31.6,29.91,SSW,197,0.0,0.0,49,0.00,,,0.00,meteohub,2013-04-03 14:28:00,
2013-04-03 08:34:00,50.0,32.2,29.91,SSW,197,0.0,0.0,50,0.00,,,0.00,meteohub,2013-04-03 14:34:00,
2013-04-03 08:39:00,50.5,31.6,29.91,SSW,197,0.0,0.0,48,0.00,,,0.00,meteohub,2013-04-03 14:39:00,
2013-04-03 08:45:00,51.4,31.3,29.91,SSW,197,0.0,0.0,46,0.00,,,0.00,meteohub,2013-04-03 14:45:00,
2013-04-03 08:50:00,52.2,31.5,29.91,SSW,197,0.0,0.0,45,0.00,,,0.00,meteohub,2013-04-03 14:50:00,
2013-04-03 08:56:00,53.2,31.3,29.91,SSW,198,0.0,0.0,43,0.00,,,0.00,meteohub,2013-04-03 14:56:00,
2013-04-03 09:01:00,54.0,31.5,29.92,SSW,205,0.0,0.0,42,0.00,,,0.00,meteohub,2013-04-03 15:01:00,
2013-04-03 09:07:00,54.1,30.9,29.92,SSW,210,0.0,0.0,41,0.00,,,0.00,meteohub,2013-04-03 15:07:00,
2013-04-03 09:12:00,54.3,31.1,29.92,SSW,210,0.0,0.0,41,0.00,,,0.00,meteohub,2013-04-03 15:12:00,
2013-04-03 09:17:00,54.3,31.6,29.92,SSW,211,0.0,0.0,42,0.00,,,0.00,meteohub,2013-04-03 15:17:00,
2013-04-03 09:23:00,54.3,31.6,29.92,SW,222,0.0,0.0,42,0.00,,,0.00,meteohub,2013-04-03 15:23:00,
2013-04-03 09:28:00,54.1,30.9,29.92,SW,223,0.0,0.0,41,0.00,,,0.00,meteohub,2013-04-03 15:28:00,
2013-04-03 09:33:00,54.7,32.0,29.92,SW,223,0.0,0.0,42,0.00,,,0.00,meteohub,2013-04-03 15:33:00,
2013-04-03 09:39:00,55.6,32.2,29.93,SW,223,0.0,0.0,41,0.00,,,0.00,meteohub,2013-04-03 15:39:00,
2013-04-03 09:44:00,56.3,32.4,29.92,SW,223,0.0,0.0,40,0.00,,,0.00,meteohub,2013-04-03 15:44:00,
2013-04-03 09:50:00,56.8,32.2,29.93,SW,235,0.0,0.0,39,0.00,,,0.00,meteohub,2013-04-03 15:50:00,
2013-04-03 09:55:00,57.0,31.6,29.93,SW,231,0.0,0.0,38,0.00,,,0.00,meteohub,2013-04-03 15:55:00,
2013-04-03 10:00:00,57.6,32.2,29.92,SW,231,0.0,0.0,38,0.00,,,0.00,meteohub,2013-04-03 16:00:00,
2013-04-03 10:06:00,58.1,32.5,29.92,SW,231,0.0,0.0,38,0.00,,,0.00,meteohub,2013-04-03 16:06:00,
2013-04-03 10:12:00,58.5,31.6,29.93,SSE,166,0.0,0.0,36,0.00,,,0.00,meteohub,2013-04-03 16:12:00,
2013-04-03 10:17:00,58.3,32.2,29.93,SE,140,0.0,0.0,37,0.00,,,0.00,meteohub,2013-04-03 16:17:00,
2013-04-03 10:22:00,58.3,32.2,29.93,South,186,0.0,0.0,37,0.00,,,0.00,meteohub,2013-04-03 16:22:00,
2013-04-03 10:27:00,58.5,32.4,29.93,WSW,237,0.0,0.0,37,0.00,,,0.00,meteohub,2013-04-03 16:27:00,
2013-04-03 10:32:00,58.6,31.8,29.93,SW,236,0.0,0.0,36,0.00,,,0.00,meteohub,2013-04-03 16:32:00,
2013-04-03 10:37:00,58.8,32.5,29.93,ESE,115,0.0,0.0,37,0.00,,,0.00,meteohub,2013-04-03 16:37:00,
2013-04-03 10:43:00,59.5,33.3,29.93,ESE,115,0.0,0.0,37,0.00,,,0.00,meteohub,2013-04-03 16:43:00,
2013-04-03 10:48:00,60.3,33.8,29.93,South,183,0.0,0.0,37,0.00,,,0.00,meteohub,2013-04-03 16:48:00,
2013-04-03 10:53:00,60.8,34.3,29.93,South,190,0.0,0.0,37,0.00,,,0.00,meteohub,2013-04-03 16:53:00,
2013-04-03 10:58:00,60.6,33.4,29.93,SSW,195,0.0,0.0,36,0.00,,,0.00,meteohub,2013-04-03 16:58:00,
2013-04-03 11:04:00,61.0,33.8,29.93,SW,235,0.0,0.0,36,0.00,,,0.00,meteohub,2013-04-03 17:04:00,
2013-04-03 11:10:00,61.3,33.4,29.93,SSW,204,0.0,0.0,35,0.00,,,0.00,meteohub,2013-04-03 17:10:00,
2013-04-03 11:15:00,61.3,33.4,29.93,SW,217,0.0,0.0,35,0.00,,,0.00,meteohub,2013-04-03 17:15:00,
2013-04-03 11:20:00,61.3,33.4,29.93,SW,215,0.0,0.0,35,0.00,,,0.00,meteohub,2013-04-03 17:20:00,
2013-04-03 11:25:00,61.9,34.0,29.93,SSE,167,0.0,0.0,35,0.00,,,0.00,meteohub,2013-04-03 17:25:00,
2013-04-03 11:31:00,61.9,34.0,29.93,ESE,115,0.0,0.0,35,0.00,,,0.00,meteohub,2013-04-03 17:31:00,
2013-04-03 11:36:00,62.1,34.2,29.93,ESE,121,0.0,0.0,35,0.00,,,0.00,meteohub,2013-04-03 17:36:00,
2013-04-03 11:42:00,62.4,33.6,29.92,ESE,121,0.0,0.0,34,0.00,,,0.00,meteohub,2013-04-03 17:42:00,
2013-04-03 11:47:00,62.4,32.9,29.92,East,89,0.0,0.0,33,0.00,,,0.00,meteohub,2013-04-03 17:47:00,
2013-04-03 11:52:00,62.4,32.9,29.92,SSW,194,0.0,0.0,33,0.00,,,0.00,meteohub,2013-04-03 17:52:00,
2013-04-03 11:58:00,62.2,33.4,29.92,SSW,204,0.0,0.0,34,0.00,,,0.00,meteohub,2013-04-03 17:58:00,
2013-04-03 12:03:00,62.6,34.5,29.92,SSW,205,0.0,0.0,35,0.00,,,0.00,meteohub,2013-04-03 18:03:00,
2013-04-03 12:11:00,63.9,33.4,29.92,SW,223,0.0,0.0,32,0.00,,,0.00,meteohub,2013-04-03 18:11:00,
2013-04-03 12:17:00,64.2,34.5,29.91,ESE,113,0.0,0.0,33,0.00,,,0.00,meteohub,2013-04-03 18:17:00,
2013-04-03 12:22:00,65.1,34.5,29.91,WNW,282,0.0,0.0,32,0.00,,,0.00,meteohub,2013-04-03 18:22:00,
2013-04-03 12:27:00,64.9,33.6,29.91,West,263,0.0,0.0,31,0.00,,,0.00,meteohub,2013-04-03 18:27:00,
2013-04-03 12:32:00,64.8,34.2,29.91,West,262,0.0,0.0,32,0.00,,,0.00,meteohub,2013-04-03 18:32:00,
2013-04-03 12:37:00,64.9,34.3,29.91,West,263,0.0,0.0,32,0.00,,,0.00,meteohub,2013-04-03 18:37:00,
2013-04-03 12:42:00,65.1,33.8,29.91,West,261,0.0,0.0,31,0.00,,,0.00,meteohub,2013-04-03 18:42:00,
2013-04-03 12:47:00,65.1,33.8,29.90,West,261,0.0,0.0,31,0.00,,,0.00,meteohub,2013-04-03 18:47:00,
2013-04-03 12:52:00,65.7,34.2,29.90,West,262,0.0,0.0,31,0.00,,,0.00,meteohub,2013-04-03 18:52:00,
2013-04-03 12:58:00,66.9,33.6,29.90,SW,223,0.0,0.0,29,0.00,,,0.00,meteohub,2013-04-03 18:58:00,
2013-04-03 13:03:00,66.7,33.4,29.90,SW,227,0.0,0.0,29,0.00,,,0.00,meteohub,2013-04-03 19:03:00,
2013-04-03 13:08:00,66.9,33.6,29.89,East,99,0.0,0.0,29,0.00,,,0.00,meteohub,2013-04-03 19:08:00,
2013-04-03 13:13:00,66.9,33.6,29.89,ENE,77,0.0,0.0,29,0.00,,,0.00,meteohub,2013-04-03 19:13:00,
2013-04-03 13:19:00,66.9,34.5,29.89,ESE,105,0.0,0.0,30,0.00,,,0.00,meteohub,2013-04-03 19:19:00,
2013-04-03 13:24:00,67.6,34.2,29.89,SSW,201,0.0,0.0,29,0.00,,,0.00,meteohub,2013-04-03 19:24:00,
2013-04-03 13:30:00,67.8,33.4,29.88,ESE,106,0.0,0.0,28,0.00,,,0.00,meteohub,2013-04-03 19:30:00,
2013-04-03 13:35:00,67.8,33.4,29.88,East,84,0.0,0.0,28,0.00,,,0.00,meteohub,2013-04-03 19:35:00,
2013-04-03 13:41:00,67.6,34.2,29.88,WNW,284,0.0,0.0,29,0.00,,,0.00,meteohub,2013-04-03 19:41:00,
2013-04-03 13:47:00,68.2,33.8,29.87,West,276,0.0,0.0,28,0.00,,,0.00,meteohub,2013-04-03 19:47:00,
2013-04-03 13:52:00,68.7,34.3,29.87,South,173,0.0,0.0,28,0.00,,,0.00,meteohub,2013-04-03 19:52:00,
2013-04-03 13:57:00,69.1,33.6,29.87,ENE,78,0.0,0.0,27,0.00,,,0.00,meteohub,2013-04-03 19:57:00,
2013-04-03 14:02:00,69.6,34.2,29.87,ENE,78,0.0,0.0,27,0.00,,,0.00,meteohub,2013-04-03 20:02:00,
2013-04-03 14:07:00,70.5,34.0,29.87,WNW,293,0.0,0.0,26,0.00,,,0.00,meteohub,2013-04-03 20:07:00,
2013-04-03 14:12:00,70.7,33.1,29.87,WNW,292,0.0,0.0,25,0.00,,,0.00,meteohub,2013-04-03 20:12:00,
2013-04-03 14:17:00,70.5,33.1,29.86,East,89,0.0,0.0,25,0.00,,,0.00,meteohub,2013-04-03 20:17:00,
2013-04-03 14:22:00,70.9,33.3,29.86,ENE,74,0.0,0.0,25,0.00,,,0.00,meteohub,2013-04-03 20:22:00,
2013-04-03 14:27:00,71.1,33.4,29.86,NE,34,0.0,0.0,25,0.00,,,0.00,meteohub,2013-04-03 20:27:00,
2013-04-03 14:32:00,71.8,33.1,29.86,ENE,78,0.0,0.0,24,0.00,,,0.00,meteohub,2013-04-03 20:32:00,
2013-04-03 14:38:00,71.2,32.5,29.86,East,89,0.0,0.0,24,0.00,,,0.00,meteohub,2013-04-03 20:38:00,
2013-04-03 14:43:00,70.5,32.0,29.86,East,86,0.0,0.0,24,0.00,,,0.00,meteohub,2013-04-03 20:43:00,
2013-04-03 14:48:00,70.9,33.3,29.85,East,89,0.0,0.0,25,0.00,,,0.00,meteohub,2013-04-03 20:48:00,
2013-04-03 14:53:00,71.6,34.0,29.85,WSW,246,0.0,0.0,25,0.00,,,0.00,meteohub,2013-04-03 20:53:00,
2013-04-03 14:59:00,71.6,32.9,29.85,SSW,206,0.0,0.0,24,0.00,,,0.00,meteohub,2013-04-03 20:59:00,
2013-04-03 15:04:00,72.0,33.3,29.85,West,259,0.0,0.0,24,0.00,,,0.00,meteohub,2013-04-03 21:04:00,
2013-04-03 15:09:00,72.3,32.4,29.84,WSW,258,0.0,0.0,23,0.00,,,0.00,meteohub,2013-04-03 21:09:00,
2013-04-03 15:14:00,72.3,33.4,29.84,SSW,202,0.0,0.0,24,0.00,,,0.00,meteohub,2013-04-03 21:14:00,
2013-04-03 15:19:00,72.7,32.7,29.84,SSW,205,0.0,0.0,23,0.00,,,0.00,meteohub,2013-04-03 21:19:00,
2013-04-03 15:25:00,73.2,33.3,29.84,SSW,192,0.0,0.0,23,0.00,,,0.00,meteohub,2013-04-03 21:25:00,
2013-04-03 15:30:00,73.0,33.1,29.84,West,263,0.0,0.0,23,0.00,,,0.00,meteohub,2013-04-03 21:30:00,
2013-04-03 15:35:00,73.6,32.4,29.84,West,271,0.0,0.0,22,0.00,,,0.00,meteohub,2013-04-03 21:35:00,
2013-04-03 15:40:00,73.9,31.5,29.84,West,261,0.0,0.0,21,0.00,,,0.00,meteohub,2013-04-03 21:40:00,
2013-04-03 15:46:00,73.8,32.5,29.83,WSW,239,0.0,0.0,22,0.00,,,0.00,meteohub,2013-04-03 21:46:00,
2013-04-03 15:51:00,73.9,31.5,29.83,WSW,238,0.0,0.0,21,0.00,,,0.00,meteohub,2013-04-03 21:51:00,
2013-04-03 15:56:00,73.4,32.2,29.84,SW,221,0.0,0.0,22,0.00,,,0.00,meteohub,2013-04-03 21:56:00,
2013-04-03 16:02:00,73.0,30.7,29.83,SSW,200,0.0,0.0,21,0.00,,,0.00,meteohub,2013-04-03 22:02:00,
2013-04-03 16:07:00,73.4,32.2,29.83,SW,219,0.0,0.0,22,0.00,,,0.00,meteohub,2013-04-03 22:07:00,
2013-04-03 16:12:00,73.9,31.5,29.83,SW,226,0.0,0.0,21,0.00,,,0.00,meteohub,2013-04-03 22:12:00,
2013-04-03 16:17:00,74.5,32.0,29.83,SW,221,0.0,0.0,21,0.00,,,0.00,meteohub,2013-04-03 22:17:00,
2013-04-03 16:22:00,74.8,32.4,29.83,SW,221,0.0,0.0,21,0.00,,,0.00,meteohub,2013-04-03 22:22:00,
2013-04-03 16:27:00,74.8,32.4,29.83,WSW,257,0.0,0.0,21,0.00,,,0.00,meteohub,2013-04-03 22:27:00,
2013-04-03 16:32:00,74.5,32.0,29.83,West,267,0.0,0.0,21,0.00,,,0.00,meteohub,2013-04-03 22:32:00,
2013-04-03 16:37:00,74.1,32.9,29.83,SW,222,0.0,0.0,22,0.00,,,0.00,meteohub,2013-04-03 22:37:00,
2013-04-03 16:43:00,74.1,31.6,29.83,SSW,197,0.0,0.0,21,0.00,,,0.00,meteohub,2013-04-03 22:43:00,
2013-04-03 16:48:00,73.8,31.5,29.82,SSE,150,0.0,0.0,21,0.00,,,0.00,meteohub,2013-04-03 22:48:00,
2013-04-03 16:53:00,73.9,31.5,29.82,WNW,294,0.0,0.0,21,0.00,,,0.00,meteohub,2013-04-03 22:53:00,
2013-04-03 16:59:00,73.2,30.9,29.83,WSW,254,0.0,0.0,21,0.00,,,0.00,meteohub,2013-04-03 22:59:00,
2013-04-03 17:04:00,73.2,32.2,29.82,WSW,254,0.0,0.0,22,0.00,,,0.00,meteohub,2013-04-03 23:04:00,
2013-04-03 17:09:00,73.8,30.2,29.82,South,189,0.0,0.0,20,0.00,,,0.00,meteohub,2013-04-03 23:09:00,
2013-04-03 17:15:00,73.9,30.4,29.82,West,277,0.0,0.0,20,0.00,,,0.00,meteohub,2013-04-03 23:15:00,
2013-04-03 17:20:00,73.6,30.0,29.82,West,261,0.0,0.0,20,0.00,,,0.00,meteohub,2013-04-03 23:20:00,
2013-04-03 17:25:00,73.6,30.0,29.82,West,263,0.0,0.0,20,0.00,,,0.00,meteohub,2013-04-03 23:25:00,
2013-04-03 17:30:00,73.6,30.0,29.82,West,281,0.0,0.0,20,0.00,,,0.00,meteohub,2013-04-03 23:30:00,
2013-04-03 17:35:00,73.2,29.7,29.82,WNW,302,0.0,0.0,20,0.00,,,0.00,meteohub,2013-04-03 23:35:00,
2013-04-03 17:41:00,73.0,29.7,29.82,WNW,290,0.0,0.0,20,0.00,,,0.00,meteohub,2013-04-03 23:41:00,
2013-04-03 17:46:00,72.9,29.5,29.82,WSW,246,0.0,0.0,20,0.00,,,0.00,meteohub,2013-04-03 23:46:00,
2013-04-03 17:52:00,72.9,29.5,29.82,West,267,0.0,0.0,20,0.00,,,0.00,meteohub,2013-04-03 23:52:00,
2013-04-03 17:57:00,73.4,29.8,29.83,West,267,0.0,0.0,20,0.00,,,0.00,meteohub,2013-04-03 23:57:00,
2013-04-03 18:02:00,73.6,30.0,29.83,West,271,0.0,0.0,20,0.00,,,0.00,meteohub,2013-04-04 00:02:00,
2013-04-03 18:07:00,73.9,29.1,29.83,West,273,0.0,0.0,19,0.00,,,0.00,meteohub,2013-04-04 00:07:00,
2013-04-03 18:12:00,73.9,30.4,29.83,West,273,0.0,0.0,20,0.00,,,0.00,meteohub,2013-04-04 00:12:00,
2013-04-03 18:17:00,74.3,30.6,29.83,West,273,0.0,0.0,20,0.00,,,0.00,meteohub,2013-04-04 00:17:00,
2013-04-03 18:22:00,74.5,30.7,29.83,West,273,0.0,0.0,20,0.00,,,0.00,meteohub,2013-04-04 00:22:00,
2013-04-03 18:28:00,74.7,29.7,29.83,West,272,0.0,0.0,19,0.00,,,0.00,meteohub,2013-04-04 00:28:00,
2013-04-03 18:33:00,74.7,29.7,29.83,West,268,0.0,0.0,19,0.00,,,0.00,meteohub,2013-04-04 00:33:00,
2013-04-03 18:38:00,74.7,29.7,29.83,West,268,0.0,0.0,19,0.00,,,0.00,meteohub,2013-04-04 00:38:00,
2013-04-03 18:43:00,74.3,29.3,29.83,West,270,0.0,0.0,19,0.00,,,0.00,meteohub,2013-04-04 00:43:00,
2013-04-03 18:49:00,73.9,29.1,29.83,West,270,0.0,0.0,19,0.00,,,0.00,meteohub,2013-04-04 00:49:00,
2013-04-03 18:54:00,73.2,28.4,29.83,West,269,0.0,0.0,19,0.00,,,0.00,meteohub,2013-04-04 00:54:00,
2013-04-03 18:59:00,72.9,29.5,29.83,West,269,0.0,0.0,20,0.00,,,0.00,meteohub,2013-04-04 00:59:00,
2013-04-03 19:04:00,72.3,28.9,29.84,West,269,0.0,0.0,20,0.00,,,0.00,meteohub,2013-04-04 01:04:00,
2013-04-03 19:09:00,71.8,28.6,29.84,West,269,0.0,0.0,20,0.00,,,0.00,meteohub,2013-04-04 01:09:00,
2013-04-03 19:14:00,71.2,29.3,29.84,West,269,0.0,0.0,21,0.00,,,0.00,meteohub,2013-04-04 01:14:00,
2013-04-03 19:20:00,70.9,28.9,29.84,West,269,0.0,0.0,21,0.00,,,0.00,meteohub,2013-04-04 01:20:00,
2013-04-03 19:25:00,70.3,28.6,29.84,West,269,0.0,0.0,21,0.00,,,0.00,meteohub,2013-04-04 01:25:00,
2013-04-03 19:32:00,70.0,29.3,29.84,West,269,0.0,0.0,22,0.00,,,0.00,meteohub,2013-04-04 01:32:00,
2013-04-03 19:37:00,69.6,29.1,29.84,West,269,0.0,0.0,22,0.00,,,0.00,meteohub,2013-04-04 01:37:00,
2013-04-03 19:42:00,69.3,28.8,29.84,West,269,0.0,0.0,22,0.00,,,0.00,meteohub,2013-04-04 01:42:00,
2013-04-03 19:47:00,69.1,29.7,29.84,West,269,0.0,0.0,23,0.00,,,0.00,meteohub,2013-04-04 01:47:00,
2013-04-03 19:52:00,68.7,29.5,29.84,West,269,0.0,0.0,23,0.00,,,0.00,meteohub,2013-04-04 01:52:00,
2013-04-03 19:57:00,68.5,29.3,29.84,West,267,0.0,0.0,23,0.00,,,0.00,meteohub,2013-04-04 01:57:00,
2013-04-03 20:02:00,68.2,28.9,29.84,West,267,0.0,0.0,23,0.00,,,0.00,meteohub,2013-04-04 02:02:00,
2013-04-03 20:07:00,68.0,29.8,29.84,West,267,0.0,0.0,24,0.00,,,0.00,meteohub,2013-04-04 02:07:00,
2013-04-03 20:12:00,67.6,29.5,29.84,West,267,0.0,0.0,24,0.00,,,0.00,meteohub,2013-04-04 02:12:00,
2013-04-03 20:18:00,67.5,29.5,29.84,West,264,0.0,0.0,24,0.00,,,0.00,meteohub,2013-04-04 02:18:00,
2013-04-03 20:23:00,67.3,29.3,29.85,West,264,0.0,0.0,24,0.00,,,0.00,meteohub,2013-04-04 02:23:00,
2013-04-03 20:28:00,67.3,29.3,29.85,West,264,0.0,0.0,24,0.00,,,0.00,meteohub,2013-04-04 02:28:00,
2013-04-03 20:34:00,66.9,28.9,29.85,West,264,0.0,0.0,24,0.00,,,0.00,meteohub,2013-04-04 02:34:00,
2013-04-03 20:39:00,66.7,28.8,29.85,SE,133,0.0,0.0,24,0.00,,,0.00,meteohub,2013-04-04 02:39:00,
2013-04-03 20:44:00,66.6,28.6,29.86,ESE,103,0.0,0.0,24,0.00,,,0.00,meteohub,2013-04-04 02:44:00,
2013-04-03 20:50:00,66.6,28.6,29.86,East,84,0.0,0.0,24,0.00,,,0.00,meteohub,2013-04-04 02:50:00,
2013-04-03 20:55:00,66.6,28.6,29.86,East,92,0.0,0.0,24,0.00,,,0.00,meteohub,2013-04-04 02:55:00,
2013-04-03 21:01:00,66.4,28.4,29.87,ESE,105,0.0,0.0,24,0.00,,,0.00,meteohub,2013-04-04 03:01:00,
2013-04-03 21:06:00,66.2,28.4,29.87,ESE,107,0.0,0.0,24,0.00,,,0.00,meteohub,2013-04-04 03:06:00,
2013-04-03 21:12:00,66.0,28.2,29.87,ESE,109,0.0,0.0,24,0.00,,,0.00,meteohub,2013-04-04 03:12:00,
2013-04-03 21:17:00,65.7,27.9,29.87,ESE,121,0.0,0.0,24,0.00,,,0.00,meteohub,2013-04-04 03:17:00,
2013-04-03 21:22:00,65.1,28.4,29.88,ESE,123,0.0,0.0,25,0.00,,,0.00,meteohub,2013-04-04 03:22:00,
2013-04-03 21:27:00,64.8,29.1,29.88,ESE,123,0.0,0.0,26,0.00,,,0.00,meteohub,2013-04-04 03:27:00,
2013-04-03 21:32:00,64.2,28.6,29.89,ESE,123,0.0,0.0,26,0.00,,,0.00,meteohub,2013-04-04 03:32:00,
2013-04-03 21:37:00,63.9,28.2,29.89,SE,125,0.0,0.0,26,0.00,,,0.00,meteohub,2013-04-04 03:37:00,
2013-04-03 21:43:00,63.3,27.9,29.89,SE,126,0.0,0.0,26,0.00,,,0.00,meteohub,2013-04-04 03:43:00,
2013-04-03 21:48:00,63.1,28.6,29.90,SE,138,0.0,0.0,27,0.00,,,0.00,meteohub,2013-04-04 03:48:00,
2013-04-03 21:53:00,63.0,28.4,29.90,SE,138,0.0,0.0,27,0.00,,,0.00,meteohub,2013-04-04 03:53:00,
2013-04-03 21:59:00,62.8,28.2,29.90,SE,135,0.0,0.0,27,0.00,,,0.00,meteohub,2013-04-04 03:59:00,
2013-04-03 22:00:00,62.8,28.2,29.90,SE,135,0.0,0.0,27,0.00,,,0.00,meteohub,2013-04-04 04:00:00,
2013-04-03 22:01:00,62.8,28.2,29.90,SE,135,0.0,0.0,27,0.00,,,0.00,meteohub,2013-04-04 04:01:00,
2013-04-03 22:02:00,62.8,28.2,29.90,SE,135,0.0,0.0,27,0.00,,,0.00,meteohub,2013-04-04 04:02:00,
2013-04-03 22:07:00,62.6,29.1,29.91,SE,136,0.0,0.0,28,0.00,,,0.00,meteohub,2013-04-04 04:07:00,
2013-04-03 22:12:00,62.4,28.9,29.91,SE,136,0.0,0.0,28,0.00,,,0.00,meteohub,2013-04-04 04:12:00,
2013-04-03 22:17:00,62.2,28.8,29.91,SE,136,0.0,0.0,28,0.00,,,0.00,meteohub,2013-04-04 04:17:00,
2013-04-03 22:22:00,62.1,28.6,29.91,SE,136,0.0,0.0,28,0.00,,,0.00,meteohub,2013-04-04 04:22:00,
2013-04-03 22:27:00,61.9,29.3,29.91,SE,136,0.0,0.0,29,0.00,,,0.00,meteohub,2013-04-04 04:27:00,
2013-04-03 22:32:00,61.5,28.9,29.91,SE,136,0.0,0.0,29,0.00,,,0.00,meteohub,2013-04-04 04:32:00,
2013-04-03 22:38:00,61.5,28.9,29.91,SE,136,0.0,0.0,29,0.00,,,0.00,meteohub,2013-04-04 04:38:00,
2013-04-03 22:43:00,61.5,28.9,29.91,SE,138,0.0,0.0,29,0.00,,,0.00,meteohub,2013-04-04 04:43:00,
2013-04-03 22:50:00,61.3,28.8,29.91,SE,138,0.0,0.0,29,0.00,,,0.00,meteohub,2013-04-04 04:50:00,
2013-04-03 22:55:00,61.2,29.5,29.91,SE,138,0.0,0.0,30,0.00,,,0.00,meteohub,2013-04-04 04:55:00,
2013-04-03 23:01:00,61.0,30.2,29.91,SE,138,0.0,0.0,31,0.00,,,0.00,meteohub,2013-04-04 05:01:00,
2013-04-03 23:06:00,60.6,29.8,29.91,SE,138,0.0,0.0,31,0.00,,,0.00,meteohub,2013-04-04 05:06:00,
2013-04-03 23:11:00,60.4,29.7,29.91,SE,138,0.0,0.0,31,0.00,,,0.00,meteohub,2013-04-04 05:11:00,
2013-04-03 23:16:00,60.1,30.2,29.92,SE,138,0.0,0.0,32,0.00,,,0.00,meteohub,2013-04-04 05:16:00,
2013-04-03 23:22:00,59.7,31.3,29.92,SE,138,0.0,0.0,34,0.00,,,0.00,meteohub,2013-04-04 05:22:00,
2013-04-03 23:27:00,59.5,29.7,29.92,SE,138,0.0,0.0,32,0.00,,,0.00,meteohub,2013-04-04 05:27:00,
2013-04-03 23:32:00,59.5,30.4,29.92,SE,138,0.0,0.0,33,0.00,,,0.00,meteohub,2013-04-04 05:32:00,
2013-04-03 23:37:00,59.5,30.4,29.92,SE,138,0.0,0.0,33,0.00,,,0.00,meteohub,2013-04-04 05:37:00,
2013-04-03 23:42:00,59.4,30.9,29.92,SE,138,0.0,0.0,34,0.00,,,0.00,meteohub,2013-04-04 05:42:00,
2013-04-03 23:48:00,59.2,30.0,29.92,SE,138,0.0,0.0,33,0.00,,,0.00,meteohub,2013-04-04 05:48:00,
2013-04-03 23:53:00,59.2,30.0,29.92,SE,138,0.0,0.0,33,0.00,,,0.00,meteohub,2013-04-04 05:53:00,
2013-04-03 23:58:00,58.8,31.3,29.93,SE,138,0.0,0.0,35,0.00,,,0.00,meteohub,2013-04-04 05:58:00,